Date,TemperatureHighF,TemperatureAvgF,TemperatureLowF,DewpointHighF,DewpointAvgF,DewpointLowF,HumidityHigh,HumidityAvg,HumidityLow,PressureMaxIn,PressureMinIn,WindSpeedMaxMPH,WindSpeedAvgMPH,GustSpeedMaxMPH,PrecipitationSumIn
2013-7-1,78.0,76.3,75.0,78.0,76.3,75.0,100,100,100,30.04,29.89,3,0,10,0.81
2013-7-2,83.0,77.8,76.0,81.0,77.5,76.0,100,99,92,30.16,30.03,1,0,10,0.01
2013-7-3,84.0,78.8,74.0,81.0,77.6,74.0,100,97,87,30.22,30.14,1,0,5,0.01
2013-7-4,87.0,82.2,77.0,81.0,77.4,75.0,100,87,72,30.22,30.13,3,0,10,0.00
2013-7-5,91.0,83.6,77.0,81.0,76.9,73.0,100,82,58,30.19,30.06,3,0,10,0.00
2013-7-6,93.0,86.6,79.0,80.0,74.7,71.0,99,69,49,30.11,29.97,5,1,12,0.00
2013-7-7,92.0,87.6,80.0,79.0,75.5,68.0,97,68,57,30.03,29.91,2,1,12,0.00
2013-7-8,91.0,79.7,74.0,75.0,68.5,-99.9,100,73,44,30.02,29.94,5,1,12,0.84
2013-7-9,86.0,79.0,74.0,80.0,76.2,71.0,100,92,62,30.03,29.97,3,0,10,0.93
2013-7-10,86.0,78.6,75.0,83.0,72.4,-99.9,100,87,64,30.00,29.78,2,0,10,0.01
2013-7-11,83.0,79.3,73.0,79.0,75.8,69.0,100,90,66,29.90,29.79,3,1,12,0.34
2013-7-12,77.0,73.2,69.0,75.0,68.9,64.0,100,87,74,30.10,29.91,5,2,14,0.31
2013-7-13,80.0,74.4,68.0,80.0,74.4,68.0,100,100,100,30.27,30.09,6,2,14,0.37
2013-7-14,91.0,83.0,77.0,83.0,76.8,73.0,100,83,57,30.30,30.20,6,1,14,0.04
2013-7-15,92.0,84.9,80.0,81.0,75.7,72.0,92,75,52,30.22,30.10,6,1,17,0.00
2013-7-16,92.0,84.4,76.0,80.0,70.4,64.0,100,66,41,30.18,30.11,7,3,14,0.00
2013-7-17,91.0,83.7,76.0,78.0,73.2,69.0,98,72,57,30.17,30.05,3,1,14,0.00
2013-7-18,96.0,88.7,79.0,80.0,74.9,70.0,99,66,43,30.05,29.93,6,1,14,0.00
2013-7-19,97.0,92.4,82.0,82.0,75.9,71.0,98,60,44,29.95,29.75,5,1,14,0.00
2013-7-20,94.0,86.7,82.0,78.0,72.7,67.0,77,64,48,29.81,29.67,6,1,17,0.00
2013-7-21,82.0,78.5,75.0,78.0,69.8,60.0,100,76,47,29.93,29.79,3,1,17,0.00
2013-7-22,80.0,76.4,73.0,80.0,76.4,73.0,100,100,96,29.93,29.79,5,2,12,0.00
2013-7-27,81.0,77.2,72.0,72.0,67.2,65.0,100,72,59,30.00,29.94,2,0,12,0.02
2013-7-28,78.0,72.7,68.0,75.0,71.5,68.0,100,96,80,29.98,29.93,2,0,12,0.07
2013-7-29,85.0,77.8,72.0,76.0,68.4,52.0,100,77,36,30.06,29.92,5,1,12,0.02
2013-7-30,81.0,73.0,63.0,65.0,58.8,56.0,99,63,45,30.14,30.06,8,2,14,0.01
2013-7-31,80.0,73.1,63.0,66.0,63.6,58.0,100,74,47,30.14,30.03,2,0,14,0.00